Location: Calvera
(42.3882°N, 0.6137°E)
Time: 14:14:52
(UTC+00:00)

SAR-Lupe-1 - Pass Details

Date: 28 October 2020
Orbit: 480 x 485 km, 98.2° (Epoch: 22 November)

Event Time Altitude Azimuth Distance (km) Brightness Sun altitude
Rises 04:48:54 0° 161° (SSE) 2,529 8.0 -18.5°
Reaches altitude 10° 04:50:57 10° 159° (SSE) 1,654 7.0 -18.1°
Maximum altitude 04:54:29 71° 75° (ENE) 514 4.3 -17.5°
Drops below altitude 10° 04:58:03 10° 351° (N) 1,667 6.7 -16.8°
Sets 05:00:07 0° 350° (N) 2,551 7.6 -16.5°
